This demonstration page uses our WeatherBlox Daily Observations layout. Learn more.

Left ArrowRight Arrow

44.8408, -93.29828

Hourly Observations for March 11, 2022

Temp ( °F °C ) Dew Point ( °F °C ) Humidity (%) Winds ( mph kmh ) Pressure ( in mb ) Visibility ( mi km ) Precip ( " mm )
12:53 am 00:53 Mostly Cloudy 22 -5.6 5 -15 48 48 SSW 8 13 29.97 1015 10 16 0.00 0.00
1:53 am 01:53 Partly Cloudy 23 -5 7 -13.9 50 50 WSW 15 24 29.96 1015 10 16 0.00 0.00
2:53 am 02:53 Mostly Cloudy 20 -6.7 10 -12.2 65 65 W 21 33 29.96 1015 10 16 0.00 0.00
3:53 am 03:53 Cloudy 16 -8.9 -2 -18.9 45 45 WNW 22 35 29.98 1015 10 16 0.00 0.00
4:53 am 04:53 Mostly Clear 11 -11.7 -2 -18.9 55 55 WNW 18 30 30.04 1017 10 16 0.00 0.00
5:53 am 05:53 Mostly Clear 10 -12.2 -3 -19.4 55 55 WNW 15 24 30.05 1018 10 16 0.00 0.00
6:53 am 06:53 Mostly Sunny 8 -13.3 -4 -20 57 57 WNW 20 31 30.08 1019 10 16 0.00 0.00
7:53 am 07:53 Partly Cloudy 6 -14.4 -6 -21.1 57 57 WNW 20 31 30.11 1020 10 16 0.00 0.00
8:53 am 08:53 Partly Cloudy 6 -14.4 -6 -21.1 57 57 NW 21 33 30.14 1021 10 16 0.00 0.00
9:53 am 09:53 Mostly Sunny 8 -13.3 -6 -21.1 52 52 W 16 26 30.16 1022 10 16 0.00 0.00
10:53 am 10:53 Mostly Cloudy 9 -12.8 -4 -20 55 55 WNW 16 26 30.18 1022 10 16 0.00 0.00
11:53 am 11:53 Partly Cloudy 10 -12.2 -6 -21.1 48 48 W 17 28 30.18 1022 10 16 0.00 0.00
12:53 pm 12:53 Sunny 11 -11.7 -4 -20 51 51 WNW 23 37 30.18 1022 10 16 0.00 0.00
1:53 pm 13:53 Partly Cloudy 12 -11.1 -4 -20 48 48 W 21 33 30.18 1022 10 16 0.00 0.00
2:53 pm 14:53 Mostly Sunny 12 -11.1 -4 -20 48 48 NW 18 30 30.19 1023 10 16 0.00 0.00
3:53 pm 15:53 Sunny 12 -11.1 -4 -20 48 48 NW 22 35 30.22 1023 10 16 0.00 0.00
4:53 pm 16:53 Mostly Sunny 11 -11.7 -4 -20 51 51 NNW 21 33 30.24 1024 10 16 0.00 0.00
5:53 pm 17:53 Mostly Sunny 9 -12.8 -5 -20.6 52 52 WNW 22 35 30.26 1025 10 16 0.00 0.00
6:53 pm 18:53 Clear 8 -13.3 -5 -20.6 55 55 WNW 18 30 30.27 1025 10 16 0.00 0.00
7:53 pm 19:53 Clear 6 -14.4 -6 -21.1 57 57 WNW 17 28 30.29 1026 10 16 0.00 0.00
8:53 pm 20:53 Clear 5 -15 -8 -22.2 54 54 WNW 20 31 30.31 1026 10 16 0.00 0.00
9:53 pm 21:53 Clear 3 -16.1 -8 -22.2 60 60 WNW 18 30 30.32 1027 10 16 0.00 0.00
10:53 pm 22:53 Clear 3 -16.1 -9 -22.8 57 57 NW 14 22 30.32 1027 10 16 0.00 0.00
11:53 pm 23:53 Clear 2 -16.7 -9 -22.8 59 59 WNW 13 20 30.33 1027 10 16 0.00 0.00

Powered by AerisWeather